Weather History for Fargo, ND

Change the Weather History Date:

Monday, October 29, 2012

  Actual Average Record
Temperature  
Mean Temperature 44 °F 39 °F  
Max Temperature 51 °F 49 °F 78 °F (1950)
Min Temperature 37 °F 30 °F 3 °F (1895)
Degree Days  
Heating Degree Days 21 26  
Month to date heating degree days 603 554  
Since 1 July heating degree days 833 824  
Cooling Degree Days 0 0  
Month to date cooling degree days 0 0  
Year to date cooling degree days 795 548  
Moisture  
Dew Point 31 °F    
Average Humidity 66    
Maximum Humidity 82    
Minimum Humidity 50    
Precipitation  
Precipitation 0.00 in 0.05 in 1.56 in (2004)
Month to date precipitation 2.22 2.06  
Year to date precipitation 13.56 20.69  
Snow  
Snow 0.00 in 0.10 in 4.50 in (1929)
Month to date snowfall 3.6 0.6  
Since 1 July snowfall 3.6 0.6  
Since 1 September snowfall 3.6 0.6  
Snow Depth 0.00 in    
Sea Level Pressure  
Sea Level Pressure 30.17 in    
Wind  
Wind Speed 13 mph (SE)    
Max Wind Speed 21 mph    
Max Gust Speed 25 mph    
Visibility 10 miles    
Events      
T = Trace of Precipitation, MM = Missing Value Source: NWS Daily Summary

Daily Weather History Graph

Daily Weather History Graph

Search for Another Location

Airport:

Trip Planner

Search our weather history database for the weather conditions in past years. The results will help you decide how hot, cold, wet, or windy it might be!

Date:

Astronomy

Oct. 29, 2012 Rise Set
Actual Time 8:06 AM CDT 6:15 PM CDT
Civil Twilight 7:34 AM CDT 6:46 PM CDT
Nautical Twilight 6:58 AM CDT 7:22 PM CDT
Astronomical Twilight 6:23 AM CDT 7:57 PM CDT
Moon 6:04 PM CDT (10/29) 7:59 AM CDT (10/29)
Length of Visible Light 11h 12m
Length of Day
10h 08m
Full, 100% of the Moon is Illuminated
Oct 29
Full
Oct 29
Full
Nov 6
Last Quarter
Nov 13
New
Nov 20
First Quarter

Hourly Weather History & Observations

Time (CDT) Temp. Windchill Dew Point Humidity Pressure Visibility Wind Dir Wind Speed Gust Speed Precip Events Conditions
12:53 AM 37.0 °F 30.4 °F 32.0 °F 82% 30.21 in 10.0 mi East 9.2 mph - N/A   Overcast
1:53 AM 39.0 °F 32.3 °F 32.0 °F 76% 30.20 in 10.0 mi SE 10.4 mph - N/A   Overcast
2:53 AM 39.9 °F 32.9 °F 32.0 °F 73% 30.19 in 10.0 mi SE 11.5 mph - N/A   Overcast
3:53 AM 39.9 °F 32.9 °F 30.9 °F 70% 30.17 in 10.0 mi SE 11.5 mph - N/A   Scattered Clouds
4:53 AM 39.9 °F 33.4 °F 30.9 °F 70% 30.16 in 10.0 mi SE 10.4 mph - N/A   Scattered Clouds
5:53 AM 41.0 °F 33.9 °F 30.9 °F 67% 30.17 in 10.0 mi SE 12.7 mph - N/A   Overcast
6:53 AM 41.0 °F 33.5 °F 30.9 °F 67% 30.17 in 10.0 mi SSE 13.8 mph - N/A   Overcast
7:53 AM 41.0 °F 33.9 °F 30.9 °F 67% 30.17 in 10.0 mi SE 12.7 mph - N/A   Overcast
8:53 AM 41.0 °F 33.9 °F 30.0 °F 65% 30.18 in 10.0 mi SE 12.7 mph - N/A   Overcast
9:53 AM 42.1 °F 34.9 °F 30.0 °F 62% 30.19 in 10.0 mi SSE 13.8 mph - N/A   Overcast
10:53 AM 43.0 °F 35.4 °F 30.9 °F 62% 30.19 in 10.0 mi SSE 16.1 mph - N/A   Overcast
11:53 AM 46.0 °F 38.3 °F 33.1 °F 61% 30.19 in 10.0 mi SSE 20.7 mph - N/A   Overcast
12:53 PM 48.0 °F - 33.1 °F 56% 30.18 in 10.0 mi SE 17.3 mph 21.9 mph N/A   Overcast
1:53 PM 50.0 °F - 33.1 °F 52% 30.16 in 10.0 mi SSE 15.0 mph 23.0 mph N/A   Clear
2:53 PM 50.0 °F - 33.8 °F 54% 30.12 in 10.0 mi SE 19.6 mph 25.3 mph N/A   Clear
3:53 PM 50.0 °F - 33.1 °F 52% 30.15 in 10.0 mi South 16.1 mph 24.2 mph N/A   Clear
4:53 PM 50.0 °F - 32.0 °F 50% 30.16 in 10.0 mi SSE 10.4 mph 19.6 mph N/A   Clear
5:53 PM 48.9 °F - 32.0 °F 52% 30.15 in 10.0 mi SSE 10.4 mph - N/A   Clear
6:53 PM 46.0 °F 41.0 °F 30.9 °F 56% 30.16 in 10.0 mi SE 10.4 mph - N/A   Clear
7:53 PM 45.0 °F 39.7 °F 30.0 °F 56% 30.17 in 10.0 mi SE 10.4 mph - N/A   Clear
8:53 PM 42.1 °F 35.2 °F 28.9 °F 60% 30.17 in 10.0 mi SE 12.7 mph - N/A   Clear
9:53 PM 41.0 °F 34.3 °F 28.0 °F 60% 30.17 in 10.0 mi SE 11.5 mph - N/A   Clear
10:53 PM 41.0 °F 32.8 °F 28.0 °F 60% 30.17 in 10.0 mi SE 16.1 mph - N/A   Clear
11:53 PM 39.9 °F 32.5 °F 28.9 °F 65% 30.19 in 10.0 mi SE 12.7 mph - N/A   Clear